W7MB Weather Reports


time (UTC)temp
C
wind
direction
speed
KPH
gust
KPH
rain 1hr
cm
rain 24hr
cm
rain mn
cm
humidity
%
barometer
mb
20260505040004 17 0 0.0 0.0 0.00 0.00 0.00 58 1008.7
20260505035403 17 0 0.0 0.0 0.00 0.00 0.00 57 1008.7
20260505034803 17 0 0.0 0.0 0.00 0.00 0.00 56 1008.6
20260505034203 18 0 0.0 0.0 0.00 0.00 0.00 53 1008.5
20260505033604 18 0 0.0 0.0 0.00 0.00 0.00 53 1008.3
20260505033003 19 201 0.0 4.8 0.00 0.00 0.00 52 1008.3
20260505032403 19 183 0.0 6.4 0.00 0.00 0.00 51 1008.2
20260505031803 20 166 1.6 11.3 0.00 0.00 0.00 48 1008.1
20260505031203 20 171 3.2 17.7 0.00 0.00 0.00 47 1008.1
20260505030603 20 171 3.2 17.7 0.00 0.00 0.00 44 1007.9
20260505030004 21 171 4.8 17.7 0.00 0.00 0.00 45 1007.8
20260505025403 21 171 3.2 16.1 0.00 0.00 0.00 43 1007.7
20260505024803 21 174 1.6 8.0 0.00 0.00 0.00 43 1007.6
20260505024203 21 177 1.6 9.7 0.00 0.00 0.00 42 1007.5
20260505023603 22 170 1.6 14.5 0.00 0.00 0.00 41 1007.6
20260505023003 22 179 1.6 9.7 0.00 0.00 0.00 40 1007.5
20260505022403 23 178 3.2 12.9 0.00 0.00 0.00 39 1007.3
20260505021804 23 174 3.2 19.3 0.00 0.00 0.00 37 1007.3
20260505021203 23 176 4.8 19.3 0.00 0.00 0.00 36 1007.3
20260505020603 24 186 3.2 16.1 0.00 0.00 0.00 36 1007.3
20260505020004 25 185 3.2 16.1 0.00 0.00 0.00 35 1007.1
20260505015403 25 193 3.2 16.1 0.00 0.00 0.00 34 1007.1
20260505014803 26 187 3.2 16.1 0.00 0.00 0.00 33 1007.1
20260505014203 26 186 4.8 16.1 0.00 0.00 0.00 32 1007.0
20260505013603 26 186 3.2 14.5 0.00 0.00 0.00 30 1007.0
20260505013003 26 183 3.2 16.1 0.00 0.00 0.00 31 1007.0
20260505012403 27 187 1.6 20.9 0.00 0.00 0.00 31 1007.1
20260505011803 27 193 1.6 20.9 0.00 0.00 0.00 32 1007.1
20260505011203 27 195 4.8 17.7 0.00 0.00 0.00 32 1007.1
20260505010603 27 187 4.8 19.3 0.00 0.00 0.00 30 1007.2
20260505010004 27 181 4.8 19.3 0.00 0.00 0.00 30 1007.1
20260505005403 27 181 3.2 14.5 0.00 0.00 0.00 30 1007.2
20260505004803 27 190 3.2 14.5 0.00 0.00 0.00 31 1007.2
20260505004203 27 199 4.8 12.9 0.00 0.00 0.00 30 1007.0
20260505003603 27 196 4.8 20.9 0.00 0.00 0.00 30 1007.1
20260505003003 27 200 6.4 20.9 0.00 0.00 0.00 29 1007.1
20260505002403 27 210 4.8 20.9 0.00 0.00 0.00 31 1007.0
20260505001803 27 202 4.8 17.7 0.00 0.00 0.00 32 1007.0
20260505001203 26 186 6.4 24.1 0.00 0.00 0.00 32 1006.9
20260505000603 26 183 8.0 24.1 0.00 0.00 0.00 32 1007.0
20260505000003 26 185 8.0 22.5 0.00 0.00 0.00 31 1006.9
20260504235403 26 185 6.4 25.7 0.00 0.00 0.00 30 1007.0
20260504234803 26 184 6.4 25.7 0.00 0.00 0.00 29 1007.0
20260504234203 27 187 6.4 25.7 0.00 0.00 0.00 28 1007.0
20260504233603 27 191 4.8 24.1 0.00 0.00 0.00 26 1007.0
20260504233003 28 198 6.4 22.5 0.00 0.00 0.00 27 1006.9
20260504232403 28 208 6.4 22.5 0.00 0.00 0.00 29 1007.0
20260504231803 28 204 6.4 25.7 0.00 0.00 0.00 27 1007.0
20260504231203 29 189 6.4 25.7 0.00 0.00 0.00 26 1007.1
20260504230603 29 188 3.2 22.5 0.00 0.00 0.00 26 1007.1
20260504230004 30 218 1.6 16.1 0.00 0.00 0.00 28 1007.2
20260504225403 29 192 8.0 27.4 0.00 0.00 0.00 27 1007.1
20260504224803 29 196 8.0 27.4 0.00 0.00 0.00 28 1007.1
20260504224203 30 190 6.4 22.5 0.00 0.00 0.00 26 1007.2
20260504223603 30 187 6.4 29.0 0.00 0.00 0.00 24 1007.2
20260504223003 30 199 6.4 29.0 0.00 0.00 0.00 29 1007.0
20260504222403 30 187 8.0 25.7 0.00 0.00 0.00 30 1007.3
20260504221803 30 193 8.0 33.8 0.00 0.00 0.00 29 1007.3
20260504221203 30 212 4.8 22.5 0.00 0.00 0.00 30 1007.4
20260504220603 30 190 6.4 27.4 0.00 0.00 0.00 32 1007.5
20260504220004 30 187 4.8 27.4 0.00 0.00 0.00 30 1007.6
20260504215403 30 179 4.8 30.6 0.00 0.00 0.00 28 1007.6
20260504214803 30 180 6.4 30.6 0.00 0.00 0.00 30 1007.7
20260504214203 30 184 3.2 20.9 0.00 0.00 0.00 31 1007.8
20260504213603 30 181 1.6 19.3 0.00 0.00 0.00 27 1007.8
20260504213003 30 201 0.0 12.9 0.00 0.00 0.00 29 1008.0
20260504212403 30 208 0.0 11.3 0.00 0.00 0.00 29 1007.9
20260504211803 30 191 0.0 11.3 0.00 0.00 0.00 26 1008.0
20260504211203 30 193 1.6 17.7 0.00 0.00 0.00 28 1008.0
20260504210603 30 217 1.6 22.5 0.00 0.00 0.00 26 1008.0
20260504210004 30 259 1.6 22.5 0.00 0.00 0.00 28 1008.1
20260504205403 30 214 3.2 24.1 0.00 0.00 0.00 28 1008.2
20260504204803 29 177 1.6 24.1 0.00 0.00 0.00 26 1008.1
20260504204203 30 178 1.6 22.5 0.00 0.00 0.00 27 1008.2
20260504203603 30 167 1.6 14.5 0.00 0.00 0.00 30 1008.3
20260504203003 30 166 1.6 19.3 0.00 0.00 0.00 26 1008.4
20260504202403 30 203 0.0 19.3 0.00 0.00 0.00 28 1008.5
20260504201803 30 192 0.0 12.9 0.00 0.00 0.00 29 1008.4
20260504201203 30 187 1.6 14.5 0.00 0.00 0.00 28 1008.5
20260504200603 30 181 1.6 14.5 0.00 0.00 0.00 30 1008.5
20260504200003 30 185 1.6 12.9 0.00 0.00 0.00 25 1008.6
20260504195403 30 175 0.0 14.5 0.00 0.00 0.00 28 1008.7
20260504194803 30 173 1.6 17.7 0.00 0.00 0.00 30 1008.7
20260504194203 29 172 0.0 17.7 0.00 0.00 0.00 28 1008.7
20260504193603 29 192 1.6 12.9 0.00 0.00 0.00 32 1008.7
20260504193003 28 190 3.2 25.7 0.00 0.00 0.00 29 1008.8
20260504192403 28 200 1.6 25.7 0.00 0.00 0.00 28 1008.9
20260504191804 28 0 0.0 0.0 0.00 0.00 0.00 28 1009.0
20260504191203 28 0 0.0 0.0 0.00 0.00 0.00 32 1009.0
20260504190603 27 0 0.0 0.0 0.00 0.00 0.00 32 1009.0
20260504190003 27 0 0.0 0.0 0.00 0.00 0.00 37 1009.1
20260504185403 26 0 0.0 0.0 0.00 0.00 0.00 38 1009.3
20260504184803 26 0 0.0 0.0 0.00 0.00 0.00 43 1009.3
20260504184203 26 0 0.0 0.0 0.00 0.00 0.00 36 1009.3
20260504183603 25 0 0.0 0.0 0.00 0.00 0.00 45 1009.4
20260504183003 25 0 0.0 0.0 0.00 0.00 0.00 37 1009.4
20260504182403 25 0 0.0 0.0 0.00 0.00 0.00 45 1009.5
20260504181803 25 0 0.0 0.0 0.00 0.00 0.00 42 1009.6
20260504181203 25 0 0.0 0.0 0.00 0.00 0.00 42 1009.5
20260504180603 24 0 0.0 0.0 0.00 0.00 0.00 44 1009.6
20260504180004 23 0 0.0 0.0 0.00 0.00 0.00 45 1009.6
20260504175404 23 0 0.0 0.0 0.00 0.00 0.00 46 1009.7
20260504174803 23 0 0.0 0.0 0.00 0.00 0.00 41 1009.7
20260504174203 22 0 0.0 0.0 0.00 0.00 0.00 43 1009.7
20260504173603 22 0 0.0 0.0 0.00 0.00 0.00 42 1009.8
20260504173003 21 0 0.0 0.0 0.00 0.00 0.00 43 1009.8
20260504172403 21 0 0.0 0.0 0.00 0.00 0.00 46 1009.9
20260504171803 20 0 0.0 0.0 0.00 0.00 0.00 51 1009.8
20260504171203 20 0 0.0 0.0 0.00 0.00 0.00 48 1009.9
20260504170603 20 0 0.0 0.0 0.00 0.00 0.00 48 1009.9
20260504150603 8 0 0.0 0.0 0.00 0.00 0.00 74 1010.8
20260504141203 6 0 0.0 0.0 0.00 0.00 0.00 72 1011.0
20260504140603 6 0 0.0 0.0 0.00 0.00 0.00 72 1010.9
20260504130603 5 86 6.4 11.3 0.00 0.00 0.00 75 1010.5
20260504110603 6 69 0.0 6.4 0.00 0.00 0.00 81 1010.6
20260504100603 6 91 3.2 9.7 0.00 0.00 0.00 81 1010.6
20260504081803 8 83 1.6 6.4 0.00 0.00 0.00 80 1010.6
20260504081203 8 93 0.0 3.2 0.00 0.00 0.00 80 1010.7
20260504080603 8 94 1.6 9.7 0.00 0.00 0.00 80 1010.6
20260504050603 13 0 0.0 0.0 0.00 0.00 0.00 72 1010.3
20260504050004 13 82 0.0 1.6 0.00 0.00 0.00 71 1010.2
20260504045403 13 83 1.6 9.7 0.00 0.00 0.00 70 1010.3
20260504044803 13 82 1.6 9.7 0.00 0.00 0.00 69 1010.2
20260504044203 14 69 0.0 3.2 0.00 0.00 0.00 69 1010.2
20260504043603 14 87 1.6 9.7 0.00 0.00 0.00 68 1010.1
20260504043003 15 85 3.2 9.7 0.00 0.00 0.00 68 1010.0
20260504042403 15 80 3.2 9.7 0.00 0.00 0.00 67 1010.0
20260504041803 15 77 1.6 9.7 0.00 0.00 0.00 66 1009.9
20260504041203 15 71 0.0 4.8 0.00 0.00 0.00 66 1009.9
20260504040603 16 0 0.0 0.0 0.00 0.00 0.00 64 1009.8